Vancouver Sea Island Ccg, British Columbia

2:23 PM PDT on September 24, 2016 (GMT -0700)
Vancouver International

Weather History for CYVR - December, 2013

Change the Weather History Date:

Sunday, December 1, 2013

  Actual Average Record
Temperature  
Mean Temperature 48 °F -  
Max Temperature 52 °F 44 °F 52 °F (2013)
Min Temperature 39 °F 35 °F 21 °F (2014)
Degree Days  
Heating Degree Days 17    
Moisture  
Dew Point 43 °F    
Average Humidity 87    
Maximum Humidity 100    
Minimum Humidity 67    
Precipitation  
Precipitation 0.51 in - - ()
Sea Level Pressure  
Sea Level Pressure 29.79 in    
Wind  
Wind Speed 8 mph ()    
Max Wind Speed 29 mph    
Max Gust Speed 36 mph    
Visibility 11.9 miles    
Events Rain    
Averages and records for this station are not official NWS values.
T = Trace of Precipitation, MM = Missing Value Source: Averaged Metar Reports

Daily Weather History Graph

Daily Weather History Graph

Search for Another Location

Airport or City:

Trip Planner

Search our weather history database for the weather conditions in past years. The results will help you decide how hot, cold, wet, or windy it might be!

Date:

Astronomy

Dec. 01, 2013 Rise Set
Actual Time 7:46 AM PST 4:16 PM PST
Civil Twilight 7:09 AM PST 4:53 PM PST
Nautical Twilight 6:29 AM PST 5:33 PM PST
Astronomical Twilight 5:51 AM PST 6:11 PM PST
Moon 6:04 AM PST (12/1) 3:36 PM PST (12/1)
Length of Visible Light 9h 43m
Length of Day
8h 30m
Waning Crescent, 2% of the Moon is Illuminated
Dec 1
Waning Crescent
Dec 2
New
Dec 9
First Quarter
Dec 17
Full
Dec 25
Last Quarter

Hourly Weather History & Observations

Time (PST) Temp. Windchill Dew Point Humidity Pressure Visibility Wind Dir Wind Speed Gust Speed Precip Events Conditions
12:00 AM 48.2 °F - 46.4 °F 93% 30.04 in 4.0 mi East 8.1 mph - N/A Rain Light Rain
1:00 AM 46.4 °F 41.5 °F 46.4 °F 100% 29.99 in 4.0 mi ESE 10.4 mph - N/A Rain Light Rain
2:00 AM 46.4 °F 40.4 °F 46.4 °F 100% 29.95 in 4.0 mi SE 13.8 mph 19.6 mph N/A Rain Light Rain
3:00 AM 48.2 °F - 46.4 °F 93% 29.91 in 4.0 mi North - - N/A Rain Rain
4:00 AM 48 °F - 47 °F 95% 29.86 in 4 mi ESE 13.8 mph - - Rain Rain
4:00 AM 48.2 °F - 46.4 °F 93% 29.85 in 4.0 mi SE 13.8 mph - N/A Rain Rain
5:00 AM 48.2 °F - 46.4 °F 93% 29.82 in 5.0 mi SE 11.5 mph - N/A Rain Light Rain
5:39 AM 46.4 °F 42.9 °F 46.4 °F 100% 29.80 in 8.0 mi ESE 6.9 mph - N/A   Overcast
6:00 AM 48.2 °F - 46.4 °F 93% 29.80 in 6.0 mi East 4.6 mph - N/A   Overcast
6:05 AM 48.2 °F - 46.4 °F 93% 29.80 in 6.0 mi East 5.8 mph - N/A Rain Light Rain
6:24 AM 48.2 °F - 46.4 °F 93% 29.79 in 5.0 mi ENE 3.5 mph - N/A   Light Drizzle
6:55 AM 48.2 °F - 46.4 °F 93% 29.78 in 6.0 mi ESE 5.8 mph - N/A   Overcast
7:00 AM 48.2 °F - 46.4 °F 93% 29.78 in 6.0 mi ESE 6.9 mph - N/A   Overcast
8:00 AM 48.2 °F - 46.4 °F 93% 29.79 in 8.0 mi East 4.6 mph - N/A   Overcast
8:46 AM 48.2 °F - 46.4 °F 93% 29.79 in 10.0 mi East 4.6 mph - N/A   Overcast
9:00 AM 48.2 °F - 46.4 °F 93% 29.79 in 10.0 mi ENE 5.8 mph - N/A   Overcast
9:24 AM 48.2 °F - 46.4 °F 93% 29.79 in 12.0 mi East 5.8 mph - N/A   Mostly Cloudy
10:00 AM 48 °F - 47 °F 95% 29.80 in 15 mi East 6.9 mph - -   Partly Cloudy
10:00 AM 48.2 °F - 46.4 °F 93% 29.79 in 15.0 mi East 5.8 mph - N/A   Mostly Cloudy
11:00 AM 50.0 °F - 46.4 °F 87% 29.80 in 15.0 mi ESE 6.9 mph - N/A   Mostly Cloudy
12:00 PM 50.0 °F - 48.2 °F 94% 29.78 in 15.0 mi East 6.9 mph - N/A   Mostly Cloudy
1:00 PM 50.0 °F - 42.8 °F 76% 29.78 in 20.0 mi West 8.1 mph - N/A   Mostly Cloudy
2:00 PM 50.0 °F - 42.8 °F 76% 29.76 in 20.0 mi WSW 8.1 mph - N/A   Mostly Cloudy
2:06 PM 51.8 °F - 41.0 °F 67% 29.76 in 20.0 mi WSW 9.2 mph - N/A Rain Light Rain Showers
3:00 PM 48.2 °F - 39.2 °F 71% 29.77 in 15.0 mi WSW 17.3 mph - N/A Rain Light Rain Showers
3:37 PM 48.2 °F - 41.0 °F 76% 29.75 in 20.0 mi WSW 5.8 mph - N/A   Scattered Clouds
4:00 PM 45 °F - 39 °F 74% 29.74 in 19 mi South 6.9 mph - - Rain Light Rain Showers
4:00 PM 44.6 °F 40.7 °F 39.2 °F 81% 29.73 in 20.0 mi South 6.9 mph - N/A   Scattered Clouds
5:00 PM 46.4 °F 40.7 °F 39.2 °F 76% 29.73 in 20.0 mi SSW 12.7 mph 19.6 mph N/A   Scattered Clouds
6:00 PM 44.6 °F 40.2 °F 39.2 °F 81% 29.71 in 20.0 mi West 8.1 mph - N/A   Scattered Clouds
7:00 PM 44.6 °F 39.7 °F 39.2 °F 81% 29.70 in 15.0 mi WSW 9.2 mph - N/A   Mostly Cloudy
8:00 PM 44.6 °F 38.8 °F 37.4 °F 76% 29.70 in 15.0 mi WSW 11.5 mph - N/A   Mostly Cloudy
9:00 PM 44.6 °F 38.1 °F 39.2 °F 81% 29.70 in 15.0 mi SW 13.8 mph 24.2 mph N/A   Mostly Cloudy
10:00 PM 44 °F - 37 °F 68% 29.71 in 15 mi WSW 17.3 mph - -   Scattered Clouds
10:00 PM 44.6 °F 36.9 °F 37.4 °F 76% 29.70 in 15.0 mi WSW 18.4 mph - N/A   Mostly Cloudy
11:00 PM 39.2 °F 27.6 °F 33.8 °F 81% 29.73 in 15.0 mi WNW 28.8 mph 35.7 mph N/A   Scattered Clouds